Location: Goudex
(43.3760°N, 0.9543°E)
Time: 19:51:03
(UTC+00:00)

Cosmos 1833 - Pass Details

Date: 20 November 2019
Orbit: 835 x 864 km, 70.9° (Epoch: 09 December)

Event Time Altitude Azimuth Distance (km) Brightness Sun altitude
Rises 05:48:06 0° 217° (SW) 3,370 7.1 -12.2°
Reaches altitude 10° 05:50:34 10° 221° (SW) 2,440 6.4 -11.8°
Maximum altitude 05:56:03 55° 299° (WNW) 999 4.3 -10.8°
Drops below altitude 10° 06:01:35 10° 17° (NNE) 2,460 6.6 -9.9°
Sets 06:04:06 0° 22° (NNE) 3,401 7.4 -9.4°
